Weather History for Chignik, AK

Change the Weather History Date:

Wednesday, December 12, 2012

  Actual Average Record
Temperature  
Mean Temperature 40 °F -  
Max Temperature 44 °F 30 °F 44 °F (2012)
Min Temperature 37 °F 24 °F 10 °F (1999)
Degree Days  
Heating Degree Days 24    
Moisture  
Dew Point 29 °F    
Average Humidity 62    
Maximum Humidity 87    
Minimum Humidity 46    
Precipitation  
Precipitation 0.00 in - - ()
Sea Level Pressure  
Sea Level Pressure 29.63 in    
Wind  
Wind Speed 10 mph (WSW)    
Max Wind Speed 29 mph    
Max Gust Speed 38 mph    
Visibility 10 miles    
Events      
Averages and records for this station are not official NWS values.
T = Trace of Precipitation, MM = Missing Value Source: NWS Daily Summary

Daily Weather History Graph

Daily Weather History Graph

Search for Another Location

Airport:

Trip Planner

Search our weather history database for the weather conditions in past years. The results will help you decide how hot, cold, wet, or windy it might be!

Date:

Astronomy

Dec. 12, 2012 Rise Set
Actual Time 9:58 AM AKST 4:56 PM AKST
Civil Twilight 9:10 AM AKST 5:44 PM AKST
Nautical Twilight 8:21 AM AKST 6:33 PM AKST
Astronomical Twilight 7:35 AM AKST 7:19 PM AKST
Moon 9:11 AM AKST (12/12) 4:48 PM AKST (12/12)
Length of Visible Light 8h 33m
Length of Day
6h 57m
Waning Crescent, 0% of the Moon is Illuminated
Dec 12
Waning Crescent
Dec 12
New
Dec 19
First Quarter
Dec 28
Full
Jan 4
Last Quarter

Hourly Weather History & Observations

Time (AKST) Temp. Windchill Dew Point Humidity Pressure Visibility Wind Dir Wind Speed Gust Speed Precip Events Conditions
12:16 AM 41.0 °F 37.1 °F 33.8 °F 76% 29.58 in 10.0 mi SSE 5.8 mph - N/A   Mostly Cloudy
12:36 AM 39.2 °F - 33.8 °F 81% 29.58 in 10.0 mi Calm Calm - N/A   Overcast
12:56 AM 41.0 °F - 33.8 °F 76% 29.56 in 10.0 mi Calm Calm - N/A   Mostly Cloudy
1:16 AM 41.0 °F - 35.6 °F 81% 29.55 in 10.0 mi Calm Calm - N/A   Mostly Cloudy
1:36 AM 39.2 °F 34.2 °F 33.8 °F 81% 29.54 in 10.0 mi ENE 6.9 mph 16.1 mph N/A   Overcast
1:56 AM 41.0 °F 36.4 °F 35.6 °F 81% 29.54 in 10.0 mi NNE 6.9 mph - N/A   Mostly Cloudy
2:16 AM 41.0 °F 37.1 °F 35.6 °F 81% 29.55 in 10.0 mi NE 5.8 mph - N/A   Overcast
2:36 AM 39.2 °F 37.0 °F 35.6 °F 87% 29.53 in 10.0 mi ENE 3.5 mph - N/A   Overcast
2:56 AM 39.2 °F - 33.8 °F 81% 29.53 in 10.0 mi Calm Calm - N/A   Scattered Clouds
3:16 AM 37.4 °F 32.8 °F 33.8 °F 87% 29.53 in 10.0 mi South 5.8 mph - N/A   Clear
3:36 AM 39.2 °F 35.9 °F 33.8 °F 81% 29.53 in 10.0 mi South 4.6 mph - N/A   Scattered Clouds
3:56 AM 39.2 °F 37.0 °F 35.6 °F 87% 29.52 in 10.0 mi SSE 3.5 mph - N/A   Overcast
4:16 AM 39.2 °F 37.0 °F 35.6 °F 87% 29.52 in 10.0 mi ESE 3.5 mph - N/A   Overcast
4:36 AM 39.2 °F - 33.8 °F 81% 29.52 in 10.0 mi Calm Calm - N/A   Overcast
4:56 AM 39.2 °F - 33.8 °F 81% 29.52 in 10.0 mi Calm Calm - N/A   Overcast
5:16 AM 37.4 °F - 33.8 °F 87% 29.52 in 10.0 mi Calm Calm - N/A   Overcast
5:36 AM 37.4 °F 34.9 °F 33.8 °F 87% 29.53 in 10.0 mi NNE 3.5 mph - N/A   Overcast
5:56 AM 39.2 °F 34.2 °F 35.6 °F 87% 29.55 in 10.0 mi West 6.9 mph - N/A   Overcast
6:16 AM 42.8 °F 38.6 °F 35.6 °F 76% 29.55 in 10.0 mi West 6.9 mph 17.3 mph N/A   Overcast
6:36 AM 42.8 °F 38.0 °F 33.8 °F 70% 29.53 in 10.0 mi WNW 8.1 mph 18.4 mph N/A   Overcast
6:56 AM 44.6 °F 39.7 °F 33.8 °F 66% 29.54 in 10.0 mi WSW 9.2 mph 19.6 mph N/A   Overcast
7:16 AM 44.6 °F 37.8 °F 32.0 °F 61% 29.54 in 10.0 mi West 15.0 mph 25.3 mph N/A   Overcast
7:36 AM 44.6 °F 38.8 °F 30.2 °F 57% 29.55 in 10.0 mi West 11.5 mph 20.7 mph N/A   Overcast
7:56 AM 44.6 °F 37.8 °F 32.0 °F 61% 29.56 in 10.0 mi WSW 15.0 mph 24.2 mph N/A   Overcast
8:16 AM 42.8 °F 35.8 °F 32.0 °F 66% 29.57 in 10.0 mi West 13.8 mph 20.7 mph N/A   Overcast
8:36 AM 44.6 °F 38.4 °F 30.2 °F 57% 29.57 in 10.0 mi West 12.7 mph 23.0 mph N/A   Overcast
8:56 AM 44.6 °F 36.4 °F 30.2 °F 57% 29.57 in 10.0 mi WSW 20.7 mph 27.6 mph N/A   Overcast
9:16 AM 42.8 °F 35.8 °F 30.2 °F 61% 29.58 in 10.0 mi SW 13.8 mph - N/A   Overcast
9:36 AM 44.6 °F 39.2 °F 30.2 °F 57% 29.59 in 10.0 mi West 10.4 mph 26.5 mph N/A   Overcast
9:56 AM 42.8 °F 36.2 °F 30.2 °F 61% 29.60 in 10.0 mi West 12.7 mph 19.6 mph N/A   Overcast
10:16 AM 42.8 °F 37.5 °F 30.2 °F 61% 29.61 in 10.0 mi WSW 9.2 mph - N/A   Overcast
10:36 AM 42.8 °F 35.1 °F 30.2 °F 61% 29.62 in 10.0 mi West 16.1 mph 23.0 mph N/A   Overcast
10:56 AM 42.8 °F 34.8 °F 28.4 °F 57% 29.62 in 10.0 mi West 17.3 mph 28.8 mph N/A   Overcast
11:16 AM 42.8 °F 34.0 °F 28.4 °F 57% 29.63 in 10.0 mi West 20.7 mph 32.2 mph N/A   Partly Cloudy
11:36 AM 42.8 °F 32.5 °F 24.8 °F 49% 29.64 in 10.0 mi West 28.8 mph 36.8 mph N/A   Mostly Cloudy
11:56 AM 42.8 °F 33.5 °F 24.8 °F 49% 29.65 in 10.0 mi West 23.0 mph 34.5 mph N/A   Partly Cloudy
12:16 PM 42.8 °F 34.3 °F 24.8 °F 49% 29.66 in 10.0 mi West 19.6 mph 32.2 mph N/A   Scattered Clouds
12:36 PM 42.8 °F 34.3 °F 24.8 °F 49% 29.66 in 10.0 mi West 19.6 mph 38.0 mph N/A   Scattered Clouds
12:56 PM 42.8 °F 33.5 °F 24.8 °F 49% 29.66 in 10.0 mi West 23.0 mph 29.9 mph N/A   Mostly Cloudy
1:16 PM 42.8 °F 33.5 °F 24.8 °F 49% 29.68 in 10.0 mi WSW 23.0 mph 33.4 mph N/A   Overcast
1:36 PM 42.8 °F 32.7 °F 24.8 °F 49% 29.68 in 10.0 mi West 27.6 mph 36.8 mph N/A   Overcast
1:56 PM 42.8 °F 34.0 °F 24.8 °F 49% 29.70 in 10.0 mi West 20.7 mph 36.8 mph N/A   Mostly Cloudy
2:16 PM 42.8 °F 35.1 °F 24.8 °F 49% 29.70 in 10.0 mi West 16.1 mph 34.5 mph N/A   Mostly Cloudy
2:36 PM 42.8 °F 33.8 °F 23.0 °F 46% 29.68 in 10.0 mi West 21.9 mph 38.0 mph N/A   Partly Cloudy
2:56 PM 42.8 °F 35.4 °F 23.0 °F 46% 29.68 in 10.0 mi WSW 15.0 mph 25.3 mph N/A   Clear
3:16 PM 42.8 °F 35.1 °F 24.8 °F 49% 29.67 in 10.0 mi West 16.1 mph 21.9 mph N/A   Clear
3:36 PM 42.8 °F 35.1 °F 24.8 °F 49% 29.69 in 10.0 mi West 16.1 mph 24.2 mph N/A   Clear
3:56 PM 41.0 °F 32.5 °F 26.6 °F 57% 29.70 in 10.0 mi West 17.3 mph 25.3 mph N/A   Clear
4:16 PM 41.0 °F 32.5 °F 24.8 °F 53% 29.70 in 10.0 mi West 17.3 mph 27.6 mph N/A   Clear
4:36 PM 42.8 °F 36.6 °F 24.8 °F 49% 29.71 in 10.0 mi WSW 11.5 mph 27.6 mph N/A   Partly Cloudy
4:56 PM 41.0 °F 33.9 °F 24.8 °F 53% 29.71 in 10.0 mi SW 12.7 mph - N/A   Clear
5:16 PM 41.0 °F 33.5 °F 24.8 °F 53% 29.71 in 10.0 mi SW 13.8 mph 20.7 mph N/A   Clear
5:36 PM 39.2 °F 32.0 °F 24.8 °F 56% 29.72 in 10.0 mi WSW 11.5 mph - N/A   Clear
5:56 PM 39.2 °F 33.6 °F 24.8 °F 56% 29.72 in 10.0 mi SW 8.1 mph - N/A   Clear
6:16 PM 39.2 °F 32.0 °F 24.8 °F 56% 29.72 in 10.0 mi WSW 11.5 mph - N/A   Clear
6:36 PM 41.0 °F 33.5 °F 24.8 °F 53% 29.72 in 10.0 mi SW 13.8 mph - N/A   Mostly Cloudy
6:56 PM 41.0 °F 34.3 °F 24.8 °F 53% 29.71 in 10.0 mi SW 11.5 mph - N/A   Mostly Cloudy
7:16 PM 41.0 °F 32.5 °F 24.8 °F 53% 29.71 in 10.0 mi SW 17.3 mph - N/A   Partly Cloudy
7:36 PM 41.0 °F 31.9 °F 24.8 °F 53% 29.71 in 10.0 mi SW 19.6 mph 24.2 mph N/A   Clear
7:56 PM 41.0 °F 32.5 °F 24.8 °F 53% 29.71 in 10.0 mi SW 17.3 mph 25.3 mph N/A   Clear
8:16 PM 41.0 °F 32.2 °F 24.8 °F 53% 29.71 in 10.0 mi SW 18.4 mph 26.5 mph N/A   Clear
8:36 PM 41.0 °F 32.5 °F 24.8 °F 53% 29.71 in 10.0 mi SW 17.3 mph 25.3 mph N/A   Clear
8:56 PM 41.0 °F 32.2 °F 24.8 °F 53% 29.70 in 10.0 mi SW 18.4 mph 24.2 mph N/A   Clear
9:16 PM 41.0 °F 33.9 °F 24.8 °F 53% 29.71 in 10.0 mi SW 12.7 mph 19.6 mph N/A   Clear
9:36 PM 39.2 °F 31.6 °F 24.8 °F 56% 29.71 in 10.0 mi SW 12.7 mph 19.6 mph N/A   Clear
9:56 PM 39.2 °F 30.5 °F 26.6 °F 61% 29.71 in 10.0 mi SW 16.1 mph - N/A   Clear
10:16 PM 39.2 °F 30.5 °F 24.8 °F 56% 29.70 in 10.0 mi SW 16.1 mph 20.7 mph N/A   Clear
10:36 PM 41.0 °F 33.9 °F 24.8 °F 53% 29.70 in 10.0 mi SW 12.7 mph 24.2 mph N/A   Clear
10:56 PM 41.0 °F 33.5 °F 24.8 °F 53% 29.69 in 10.0 mi SW 13.8 mph 21.9 mph N/A   Clear
11:16 PM 41.0 °F 32.2 °F 24.8 °F 53% 29.69 in 10.0 mi SW 18.4 mph - N/A   Clear
11:36 PM 41.0 °F 33.1 °F 24.8 °F 53% 29.69 in 10.0 mi SW 15.0 mph 23.0 mph N/A   Clear
11:56 PM 41.0 °F 33.1 °F 23.0 °F 49% 29.69 in 10.0 mi SW 15.0 mph 19.6 mph N/A   Clear